Tracking 27079 objects as of 23-Mar-2023
HD Live streaming from Space Station
objects crossing your sky now

FENGYUN 1B

Track FENGYUN 1B now!
10-day predictions
FENGYUN 1B is classified as:


NORAD ID: 20788
Int'l Code: 1990-081A
Perigee: 879.3 km
Apogee: 903.0 km
Inclination: 98.8 °
Period: 102.6 minutes
Semi major axis: 7262 km
RCS: 3.0595 m2 (large)
Launch date: September 3, 1990
Source: People's Republic of China (PRC)
Launch site: Taiyaun Space Center, China (TSC)
Your satellite tracking list
Your tracking list is empty




NASA's NSSDC Master Catalog

Two Line Element Set (TLE):
1 20788U 90081A   23081.88845624  .00000335  00000-0  24380-3 0  9993
2 20788  98.8453  71.5537 0016386  29.2558 330.9522 14.02830220665763
Source of the keplerian elements: AFSPC